Weather History for KHOT - July, 2013

Change the Weather History Date:

Sunday, July 7, 2013

  Actual Average Record
Temperature  
Mean Temperature 83 °F -  
Max Temperature 95 °F 93 °F 103 °F (1954)
Min Temperature 73 °F 69 °F 55 °F (1972)
Cooling Degree Days 18    
Growing Degree Days 33 (Base 50)    
Moisture  
Dew Point 67 °F    
Average Humidity 61    
Maximum Humidity 82    
Minimum Humidity 39    
Precipitation  
Precipitation 0.00 in - - ()
Sea Level Pressure  
Sea Level Pressure 30.01 in    
Wind  
Wind Speed 5 mph (SE)    
Max Wind Speed 10 mph    
Max Gust Speed -    
Visibility 10 miles    
Events      
Averages and records for this station are not official NWS values.
T = Trace of Precipitation, MM = Missing Value Source: NWS Daily Summary

Daily Weather History Graph

Daily Weather History Graph

Search for Another Location

Airport or City:

Trip Planner

Search our weather history database for the weather conditions in past years. The results will help you decide how hot, cold, wet, or windy it might be!

Date:

Astronomy

Jul. 07, 2013 Rise Set
Actual Time 6:06 AM CDT 8:28 PM CDT
Civil Twilight 5:37 AM CDT 8:57 PM CDT
Nautical Twilight 5:01 AM CDT 9:32 PM CDT
Astronomical Twilight 4:22 AM CDT 10:11 PM CDT
Moon 5:40 AM CDT (7/7) 7:55 PM CDT (7/7)
Length of Visible Light 15h 19m
Length of Day
14h 21m
Waning Crescent, 0% of the Moon is Illuminated
Jul 7
Waning Crescent
Jul 8
New
Jul 15
First Quarter
Jul 22
Full
Jul 29
Last Quarter

Hourly Weather History & Observations

Time (CDT) Temp. Heat Index Dew Point Humidity Pressure Visibility Wind Dir Wind Speed Gust Speed Precip Events Conditions
12:53 AM 73.9 °F - 66.9 °F 79% 29.99 in 10.0 mi ENE 3.5 mph - N/A   Clear
1:53 AM 73.9 °F - 66.9 °F 79% 29.99 in 10.0 mi East 4.6 mph - N/A   Clear
2:53 AM 73.9 °F - 66.9 °F 79% 29.99 in 10.0 mi East 3.5 mph - N/A   Clear
3:53 AM 73.9 °F - 66.9 °F 79% 30.00 in 10.0 mi East 3.5 mph - N/A   Clear
4:53 AM 73.0 °F - 66.9 °F 81% 30.01 in 10.0 mi East 4.6 mph - N/A   Clear
5:53 AM 73.0 °F - 66.9 °F 81% 30.01 in 10.0 mi East 4.6 mph - N/A   Clear
6:53 AM 73.9 °F - 68.0 °F 82% 30.02 in 10.0 mi East 3.5 mph - N/A   Clear
7:53 AM 75.9 °F - 69.1 °F 79% 30.04 in 10.0 mi East 4.6 mph - N/A   Clear
8:53 AM 80.1 °F 83.2 °F 70.0 °F 71% 30.05 in 10.0 mi Calm Calm - N/A   Clear
9:53 AM 84.0 °F 88.4 °F 70.0 °F 63% 30.05 in 10.0 mi SSE 5.8 mph - N/A   Clear
10:53 AM 87.1 °F 90.6 °F 68.0 °F 53% 30.06 in 10.0 mi SSW 5.8 mph - N/A   Partly Cloudy
11:53 AM 88.0 °F 90.3 °F 66.0 °F 48% 30.04 in 10.0 mi South 5.8 mph - N/A   Partly Cloudy
12:53 PM 90.0 °F 91.7 °F 64.9 °F 43% 30.03 in 10.0 mi SSE 10.4 mph - N/A   Scattered Clouds
1:53 PM 91.0 °F 93.0 °F 64.9 °F 42% 30.02 in 10.0 mi Variable 4.6 mph - N/A   Scattered Clouds
2:53 PM 93.0 °F 95.0 °F 64.9 °F 39% 30.01 in 10.0 mi South 9.2 mph - N/A   Partly Cloudy
3:53 PM 93.0 °F 95.0 °F 64.9 °F 39% 29.99 in 10.0 mi SE 9.2 mph - N/A   Partly Cloudy
4:53 PM 93.0 °F 95.0 °F 64.9 °F 39% 29.98 in 10.0 mi SSE 9.2 mph - N/A   Clear
5:53 PM 93.0 °F 95.0 °F 64.9 °F 39% 29.97 in 10.0 mi SSW 9.2 mph - N/A   Partly Cloudy
6:53 PM 91.0 °F 93.8 °F 66.0 °F 44% 29.98 in 10.0 mi SSE 8.1 mph - N/A   Clear
7:53 PM 89.1 °F 91.0 °F 64.9 °F 45% 29.99 in 10.0 mi SSE 4.6 mph - N/A   Clear
8:53 PM 86.0 °F 88.8 °F 66.9 °F 53% 30.01 in 10.0 mi ESE 5.8 mph - N/A   Clear
9:53 PM 84.0 °F 87.8 °F 69.1 °F 61% 30.02 in 10.0 mi SE 4.6 mph - N/A   Clear
10:53 PM 82.9 °F 87.0 °F 70.0 °F 65% 30.04 in 10.0 mi SE 5.8 mph - N/A   Clear
11:53 PM 80.1 °F 83.6 °F 71.1 °F 74% 30.04 in 10.0 mi Variable 3.5 mph - N/A   Clear